Kuiper-00087

operational
NORAD ID: 64833 Int'l Des: 2025-151 Owner: KUIP Country: US Constellation: kuiper
LEOCIRCULAR

Über Kuiper-00087

Beschreibung wird geladen...

Live-Position

3D-Globus wird geladen...

Nächste Überflüge

Höhenverlauf

Altitude vs Time

uPlot chart will show altitude changes over time

Zweizeiliger Elementsatz

1 64833U 25151T 25340.69160376 .00007020 00000-0 94779-3 0 9998
2 64833 51.9006 331.8202 0000912 357.0439 3.0517 14.79980929 21804
Epoch: 6. Dez. 2025 • Age: 17 hours

Aktueller Status

Höhe 634.3 km
Geschwindigkeit 7.55 km/s
Subsatellitenpunkt 45.40°N, 119.78°W
Startdatum 16. Juli 2025
Alter 0.3 years
Typ internet

Technische Details

Klassifizierung Payload
Masse 490.00 kg
Trockenmasse 490.00 kg
Gesamtmasse 490.00 kg
Länge 1.80 m
Durchmesser 0.70 m
Spannweite 5.00 m
Form Box + 2 pan
Hersteller KUIP
Bus-Typ Kuiper
Phasenstatus In Orbit
Besitzer/Staat KUIP/US

Große Konstellationen

Loading constellations...